Location: Unspecified
(0.0000°N, 0.0000°E)
Time: 13:38:30
(UTC+00:00)

Vanguard 2 - Pass Details

Date: 19 September 2019
Orbit: 554 x 2937 km, 32.9° (Epoch: 13 October)

Event Time Altitude Azimuth Distance (km) Brightness Sun altitude
Rises 22:13:32 0° 227° (SW) 6,260 12.4 -64.9°
Reaches altitude 10° 22:17:30 10° 223° (SW) 5,449 12.0 -65.9°
Enters shadow 22:22:03 23° 217° (SW) 4,583 11.4 -67.0°
Maximum altitude 22:34:40 61° 145° (SE) 3,187 - -70.2°
Drops below altitude 10° 22:50:43 10° 68° (ENE) 5,167 - -74.2°
Sets 22:54:18 0° 65° (ENE) 5,936 - -75.1°
